Portada
METAR-TAF:

METAR-TAF

Aeropuertos :

Alexandria, Luisiana, Estados Unidos

latitud: 31-23-42N, longitud: 092-17-25W, altitud: 34 m

Observación

El informe se hizo hace 1 hora y 9 minutos, a las 23:53 UTC
Viento 3 kt del este-sureste
Temperatura 26°C
Humedad 65%
Presión 1014 hPa
Visibilidad: 16.1 km
Cielo despejado

METAR: KESF 282353Z AUTO 11003KT 10SM CLR 26/19 A2994 RMK AO2 SLP136 T02560189 10278 20239 55007

Hora: 20:02 (01:02 UTC)


TAF: falta

Observaciones y pronósticos meteorológicos de más de 4000 aeropuertos (mensajes METAR y TAF).

Los puntos amarillos y rojos representan las estaciones disponibles.

Ponga el ratón en el punto deseado para ver el nombre de la estación.

Haga clic para ver las observaciones y los pronósticos meteorológicos.

Para cambiar el mapa : haga clic en los botones verdes con una cruz de color negro para hacer un zoom, en el botón verde con un guión para alejar o en las flechas verdes para mapas adyacentes.


METAR-TAF: